Location: Miles
(41.4492°N, 81.6087°W)
Time: 21:32:16
(UTC+00:00)

Vanguard 2 Rocket - Pass Details

Date: 27 September 2024
Orbit: 553 x 3298 km, 32.9° (Epoch: 12 October)

Event Time Altitude Azimuth Distance (km) Brightness Sun altitude
Rises 03:02:25 0° 220° (SW) 2,859 - -40.1°
Reaches altitude 10° 03:04:49 10° 204° (SSW) 2,114 - -40.4°
Maximum altitude 03:08:34 23° 152° (SSE) 1,727 - -40.9°
Drops below altitude 10° 03:13:42 10° 103° (ESE) 2,998 - -41.6°
Sets 03:17:54 0° 91° (E) 4,456 - -42.1°
